When you browse on this site, cookies collect data to enhance your experience and personalize the content and advertising you see.
Visit our Privacy Policy to learn more. By continuing to use the site, you agree to this use of cookies and data.
  • Em Portugal
  • Lista de países
  • Para 7 dias
  • Temperatura da água
  • Mapas de satélite
  • Mapa do tempo
  • Widgets de tempo
  • user-avatar
    Iniciar Sessão

    Previsão horária em Pernik

    Hoje, 20 Janeiro, Domingo

    Tempo Temperatura Precipitação Vento Pressão Humidade
    00:00 0°C° 0 mm 1 m/s 690 mmHg 91%
    01:00 0°C° 0 mm 1 m/s 690 mmHg 92%
    02:00 0°C° 0 mm 1 m/s 690 mmHg 92%
    03:00 0°C° 0 mm 1 m/s 689 mmHg 92%
    04:00 0°C° 0 mm 1 m/s 689 mmHg 92%
    05:00 0°C° 0 mm 1 m/s 689 mmHg 92%
    06:00 0°C° 0 mm 1 m/s 688 mmHg 91%
    07:00 0°C° 0 mm 1 m/s 688 mmHg 91%
    08:00 -2°C° 0 mm 2 m/s 688 mmHg 91%
    09:00 -1°C° 0 mm 2 m/s 688 mmHg 92%
    10:00 +2°C° 0 mm 1 m/s 689 mmHg 92%
    11:00 +4°C° 0 mm 1 m/s 689 mmHg 93%
    12:00 +4°C° 0.1 mm 1 m/s 689 mmHg 92%
    13:00 +5°C° 0.1 mm 1 m/s 688 mmHg 91%
    14:00 +5°C° 0.1 mm 1 m/s 688 mmHg 90%
    15:00 +5°C° 0.2 mm 1 m/s 688 mmHg 91%
    16:00 +4°C° 0.2 mm 1 m/s 688 mmHg 92%
    17:00 +3°C° 0.2 mm 1 m/s 688 mmHg 93%
    18:00 +3°C° 0 mm 1 m/s 688 mmHg 93%
    19:00 +2°C° 0 mm 1 m/s 688 mmHg 93%
    20:00 +1°C° 0 mm 1 m/s 688 mmHg 92%
    21:00 +1°C° 0 mm 1 m/s 688 mmHg 92%
    22:00 +1°C° 0 mm 1 m/s 688 mmHg 92%
    23:00 +1°C° 0 mm 1 m/s 688 mmHg 91%

    Amanhã, 21 Janeiro, Segunda-feira

    Tempo Temperatura Precipitação Vento Pressão Humidade
    00:00 0°C° 0 mm 1 m/s 689 mmHg 91%
    01:00 0°C° 0 mm 1 m/s 689 mmHg 91%
    02:00 0°C° 0 mm 1 m/s 689 mmHg 91%
    03:00 0°C° 0 mm 1 m/s 689 mmHg 91%
    04:00 -1°C° 0 mm 0 m/s 688 mmHg 90%
    05:00 -2°C° 0 mm 0 m/s 688 mmHg 90%
    06:00 -2°C° 0 mm 0 m/s 688 mmHg 90%
    07:00 -1°C° 0 mm 1 m/s 689 mmHg 90%
    08:00 -1°C° 0 mm 1 m/s 689 mmHg 90%
    09:00 0°C° 0 mm 1 m/s 689 mmHg 88%
    10:00 +1°C° 0 mm 1 m/s 690 mmHg 86%
    11:00 +2°C° 0 mm 1 m/s 690 mmHg 84%
    12:00 +3°C° 0 mm 1 m/s 690 mmHg 84%
    13:00 +3°C° 0 mm 1 m/s 690 mmHg 84%
    14:00 +4°C° 0 mm 1 m/s 690 mmHg 83%
    15:00 +3°C° 0 mm 1 m/s 690 mmHg 85%
    16:00 +2°C° 0 mm 1 m/s 690 mmHg 87%
    17:00 +2°C° 0 mm 1 m/s 690 mmHg 89%
    18:00 +1°C° 0 mm 1 m/s 690 mmHg 90%
    19:00 +1°C° 0 mm 1 m/s 690 mmHg 91%
    20:00 0°C° 0 mm 1 m/s 691 mmHg 92%
    21:00 0°C° 0 mm 1 m/s 691 mmHg 92%
    22:00 0°C° 0 mm 1 m/s 691 mmHg 92%
    23:00 0°C° 0 mm 1 m/s 691 mmHg 93%

    Depois de amanhã, 22 Janeiro, Terça-feira

    Tempo Temperatura Precipitação Vento Pressão Humidade
    00:00 0°C° 0 mm 1 m/s 691 mmHg 92%
    01:00 0°C° 0 mm 1 m/s 690 mmHg 92%
    02:00 0°C° 0 mm 1 m/s 690 mmHg 92%
    03:00 0°C° 0 mm 1 m/s 690 mmHg 91%
    04:00 0°C° 0 mm 1 m/s 690 mmHg 91%
    05:00 0°C° 0 mm 1 m/s 689 mmHg 90%
    06:00 0°C° 0 mm 1 m/s 689 mmHg 90%
    07:00 0°C° 0 mm 1 m/s 689 mmHg 90%
    08:00 0°C° 0 mm 1 m/s 689 mmHg 90%
    09:00 +1°C° 0 mm 1 m/s 689 mmHg 87%
    10:00 +2°C° 0 mm 1 m/s 689 mmHg 85%
    11:00 +2°C° 0 mm 2 m/s 689 mmHg 83%
    12:00 +3°C° 0 mm 2 m/s 689 mmHg 82%
    13:00 +3°C° 0 mm 2 m/s 688 mmHg 80%
    14:00 +4°C° 0 mm 2 m/s 688 mmHg 79%
    15:00 +3°C° 0 mm 2 m/s 687 mmHg 82%
    16:00 +2°C° 0 mm 2 m/s 686 mmHg 85%
    17:00 +2°C° 0 mm 2 m/s 686 mmHg 88%
    18:00 +1°C° 0 mm 2 m/s 685 mmHg 89%
    19:00 +1°C° 0 mm 2 m/s 685 mmHg 91%
    20:00 -1°C° 0 mm 2 m/s 684 mmHg 92%
    21:00 -1°C° 0 mm 2 m/s 684 mmHg 92%
    22:00 -1°C° 0 mm 2 m/s 684 mmHg 92%
    23:00 -1°C° 0 mm 2 m/s 683 mmHg 92%

    23 Janeiro, Quarta-feira

    Tempo Temperatura Precipitação Vento Pressão Humidade
    00:00 -1°C° 0 mm 2 m/s 683 mmHg 92%
    01:00 -1°C° 0 mm 2 m/s 682 mmHg 92%
    02:00 -1°C° 0 mm 2 m/s 682 mmHg 91%
    03:00 -1°C° 0 mm 2 m/s 681 mmHg 92%
    04:00 -1°C° 0 mm 2 m/s 680 mmHg 92%
    05:00 -1°C° 0 mm 2 m/s 679 mmHg 92%
    06:00 -1°C° 0.2 mm 2 m/s 679 mmHg 92%
    07:00 +1°C° 0.2 mm 1 m/s 679 mmHg 93%
    08:00 +1°C° 0.2 mm 1 m/s 679 mmHg 93%
    09:00 +2°C° 0 mm 2 m/s 679 mmHg 90%
    10:00 +2°C° 0 mm 3 m/s 679 mmHg 87%
    11:00 +3°C° 0 mm 4 m/s 680 mmHg 84%
    12:00 +4°C° 0 mm 4 m/s 680 mmHg 79%
    13:00 +5°C° 0 mm 5 m/s 680 mmHg 75%
    14:00 +4°C° 0 mm 6 m/s 680 mmHg 70%
    15:00 +3°C° 0 mm 5 m/s 680 mmHg 71%
    16:00 +3°C° 0 mm 4 m/s 680 mmHg 73%
    17:00 +2°C° 0 mm 3 m/s 680 mmHg 74%
    18:00 +1°C° 0 mm 3 m/s 680 mmHg 76%
    19:00 +2°C° 0 mm 2 m/s 680 mmHg 79%
    20:00 +1°C° 0 mm 2 m/s 681 mmHg 81%
    21:00 -1°C° 0 mm 2 m/s 681 mmHg 82%
    22:00 +1°C° 0 mm 1 m/s 681 mmHg 82%
    23:00 +1°C° 0 mm 1 m/s 681 mmHg 83%

    24 Janeiro, Quinta-feira

    Tempo Temperatura Precipitação Vento Pressão Humidade
    00:00 +1°C° 0 mm 1 m/s 680 mmHg 83%
    01:00 +1°C° 0 mm 1 m/s 680 mmHg 83%
    02:00 +1°C° 0 mm 1 m/s 680 mmHg 82%
    03:00 +1°C° 0 mm 1 m/s 679 mmHg 83%
    04:00 +1°C° 0 mm 1 m/s 679 mmHg 84%
    05:00 +1°C° 0 mm 1 m/s 679 mmHg 84%
    06:00 +1°C° 0 mm 1 m/s 679 mmHg 86%
    07:00 +1°C° 0 mm 1 m/s 679 mmHg 88%
    08:00 0°C° 0 mm 1 m/s 678 mmHg 90%
    09:00 +1°C° 0 mm 1 m/s 678 mmHg 88%
    10:00 +1°C° 0 mm 2 m/s 678 mmHg 86%
    11:00 +2°C° 0 mm 2 m/s 678 mmHg 85%
    12:00 +3°C° 0 mm 2 m/s 678 mmHg 86%
    13:00 +4°C° 0 mm 2 m/s 677 mmHg 86%
    14:00 +4°C° 0 mm 2 m/s 677 mmHg 87%
    15:00 +3°C° 0.6 mm 2 m/s 676 mmHg 90%
    16:00 +3°C° 0.6 mm 2 m/s 676 mmHg 92%
    17:00 +2°C° 0.6 mm 2 m/s 675 mmHg 95%
    18:00 +2°C° 0.4 mm 2 m/s 675 mmHg 95%
    19:00 +2°C° 0.4 mm 2 m/s 675 mmHg 95%
    20:00 +2°C° 0.4 mm 2 m/s 675 mmHg 95%
    21:00 +2°C° 0.2 mm 2 m/s 675 mmHg 95%
    22:00 +2°C° 0.2 mm 2 m/s 674 mmHg 95%
    23:00 +2°C° 0.2 mm 2 m/s 674 mmHg 96%

    25 Janeiro, Sexta-feira

    Tempo Temperatura Precipitação Vento Pressão Humidade
    00:00 +2°C° 0.1 mm 2 m/s 674 mmHg 96%
    01:00 +2°C° 0.1 mm 2 m/s 674 mmHg 96%
    02:00 +2°C° 0.1 mm 2 m/s 674 mmHg 96%
    03:00 +2°C° 0.4 mm 2 m/s 673 mmHg 96%
    04:00 +2°C° 0.4 mm 2 m/s 673 mmHg 96%
    05:00 +2°C° 0.4 mm 1 m/s 673 mmHg 96%
    06:00 +2°C° 0 mm 1 m/s 673 mmHg 96%
    07:00 +1°C° 0 mm 2 m/s 673 mmHg 96%
    08:00 +1°C° 0 mm 2 m/s 673 mmHg 96%
    09:00 +2°C° 0.4 mm 2 m/s 674 mmHg 96%
    10:00 +2°C° 0.4 mm 2 m/s 674 mmHg 96%
    11:00 +3°C° 0.4 mm 2 m/s 674 mmHg 96%
    12:00 +3°C° 0.2 mm 2 m/s 674 mmHg 94%
    13:00 +3°C° 0.2 mm 2 m/s 675 mmHg 92%
    14:00 +4°C° 0.2 mm 2 m/s 675 mmHg 90%
    15:00 +3°C° 0.4 mm 2 m/s 675 mmHg 91%
    16:00 +4°C° 0.4 mm 1 m/s 675 mmHg 92%
    17:00 +3°C° 0.4 mm 1 m/s 675 mmHg 93%
    18:00 +3°C° 0.8 mm 1 m/s 676 mmHg 94%
    19:00 +3°C° 0.8 mm 1 m/s 676 mmHg 94%
    20:00 +3°C° 0.8 mm 1 m/s 677 mmHg 94%
    21:00 +2°C° 0.1 mm 1 m/s 677 mmHg 95%
    22:00 +1°C° 0.1 mm 2 m/s 678 mmHg 95%
    23:00 +1°C° 0.1 mm 2 m/s 678 mmHg 95%
    Mostrar mais